Location: Crescent
(42.8242°N, 73.7329°W)
Time: 15:12:16
(UTC+00:00)

Explorer 11/Cluster Stage 4 - Pass Details

Date: 23 February 2026
Orbit: 463 x 1176 km, 28.8° (Epoch: 8 March)

Event Time Altitude Azimuth Distance (km) Brightness Sun altitude
Rises 17:54:26 0° 243° (WSW) 3,089 10.1 36.5°
Reaches altitude 10° 17:58:21 10° 215° (SW) 1,993 9.8 36.3°
Maximum altitude 18:00:16 12° 190° (S) 1,754 9.8 36.2°
Drops below altitude 10° 18:02:05 10° 164° (SSE) 1,841 9.4 36.1°
Sets 18:05:22 0° 134° (SE) 2,615 9.6 36.0°
